| time (UTC) | temp F | wind direction | speed knots | gust knots | rain 1hr in | rain 24hr in | rain mn in | humidity % | barometer mb |
| 20260509021540 | 54 | 0 | 0.0 | 0.0 | 0.00 | 0.00 | 0.00 | 89 | 1016.5 |
| 20260509020043 | 54 | 0 | 0.0 | 0.0 | 0.00 | 0.00 | 0.00 | 88 | 1016.5 |
| 20260509014540 | 55 | 0 | 0.0 | 0.0 | 0.00 | 0.00 | 0.00 | 88 | 1016.5 |
| 20260509013052 | 55 | 0 | 0.0 | 0.0 | 0.00 | 0.00 | 0.00 | 86 | 1016.2 |
| 20260509011539 | 55 | 0 | 0.0 | 0.0 | 0.00 | 0.00 | 0.00 | 86 | 1016.2 |
| 20260509010042 | 56 | 0 | 0.0 | 0.9 | 0.00 | 0.00 | 0.00 | 84 | 1016.2 |
| 20260509004602 | 57 | 0 | 0.0 | 0.9 | 0.00 | 0.00 | 0.00 | 83 | 1016.1 |
| 20260509003044 | 58 | 0 | 0.0 | 0.9 | 0.00 | 0.00 | 0.00 | 82 | 1016.0 |
| 20260509001542 | 59 | 0 | 0.0 | 0.9 | 0.00 | 0.00 | 0.00 | 81 | 1016.0 |
| 20260509000036 | 59 | 0 | 0.0 | 0.9 | 0.00 | 0.00 | 0.00 | 80 | 1015.9 |
| 20260508234538 | 60 | 0 | 0.0 | 0.9 | 0.00 | 0.00 | 0.00 | 78 | 1016.0 |
| 20260508233043 | 61 | 0 | 0.0 | 1.7 | 0.00 | 0.00 | 0.00 | 71 | 1015.7 |
| 20260508231540 | 62 | 229 | 0.0 | 1.7 | 0.00 | 0.00 | 0.00 | 71 | 1015.9 |
| 20260508230053 | 62 | 229 | 0.9 | 2.6 | 0.00 | 0.00 | 0.00 | 69 | 1016.2 |
| 20260508224541 | 63 | 242 | 0.0 | 2.6 | 0.00 | 0.00 | 0.00 | 68 | 1015.9 |
| 20260508223038 | 63 | 0 | 0.9 | 3.5 | 0.00 | 0.00 | 0.00 | 66 | 1015.9 |
| 20260508221537 | 64 | 0 | 0.9 | 3.5 | 0.00 | 0.00 | 0.00 | 66 | 1015.8 |
| 20260508220041 | 64 | 183 | 0.0 | 4.3 | 0.00 | 0.00 | 0.00 | 65 | 1015.8 |
| 20260508214547 | 64 | 138 | 0.0 | 3.5 | 0.00 | 0.00 | 0.00 | 62 | 1015.9 |
| 20260508213040 | 64 | 209 | 1.7 | 6.1 | 0.00 | 0.00 | 0.00 | 61 | 1015.8 |
| 20260508211540 | 65 | 225 | 2.6 | 8.7 | 0.00 | 0.00 | 0.00 | 58 | 1016.0 |
| 20260508210048 | 65 | 107 | 2.6 | 9.6 | 0.00 | 0.00 | 0.00 | 57 | 1016.2 |
| 20260508204537 | 65 | 244 | 1.7 | 6.1 | 0.00 | 0.00 | 0.00 | 59 | 1015.9 |
| 20260508203046 | 66 | 211 | 0.9 | 8.7 | 0.00 | 0.00 | 0.00 | 58 | 1016.0 |
| 20260508201541 | 66 | 155 | 0.9 | 7.0 | 0.00 | 0.00 | 0.00 | 56 | 1016.3 |
| 20260508200047 | 65 | 94 | 2.6 | 8.7 | 0.00 | 0.00 | 0.00 | 57 | 1016.2 |
| 20260508194545 | 66 | 130 | 2.6 | 7.8 | 0.00 | 0.00 | 0.00 | 56 | 1016.5 |
| 20260508193042 | 66 | 93 | 2.6 | 10.4 | 0.00 | 0.00 | 0.00 | 55 | 1016.8 |
| 20260508191548 | 68 | 242 | 0.9 | 6.1 | 0.00 | 0.00 | 0.00 | 52 | 1017.0 |
| 20260508190052 | 67 | 134 | 4.3 | 10.4 | 0.00 | 0.00 | 0.00 | 51 | 1017.1 |
| 20260508184558 | 67 | 125 | 1.7 | 7.0 | 0.00 | 0.00 | 0.00 | 54 | 1017.3 |
| 20260508183040 | 66 | 0 | 0.9 | 9.6 | 0.00 | 0.00 | 0.00 | 54 | 1017.5 |
| 20260508181554 | 66 | 221 | 2.6 | 9.6 | 0.00 | 0.00 | 0.00 | 55 | 1017.9 |
| 20260508180046 | 65 | 202 | 3.5 | 8.7 | 0.00 | 0.00 | 0.00 | 55 | 1018.0 |
| 20260508174537 | 65 | 138 | 1.7 | 7.0 | 0.00 | 0.00 | 0.00 | 55 | 1018.2 |
| 20260508173047 | 64 | 93 | 2.6 | 8.7 | 0.00 | 0.00 | 0.00 | 56 | 1018.2 |
| 20260508171541 | 63 | 142 | 2.6 | 6.1 | 0.00 | 0.00 | 0.00 | 57 | 1018.5 |
| 20260508170040 | 63 | 59 | 1.7 | 7.0 | 0.00 | 0.00 | 0.00 | 57 | 1018.6 |
| 20260508164545 | 65 | 211 | 0.9 | 7.0 | 0.00 | 0.00 | 0.00 | 54 | 1018.8 |
| 20260508163037 | 63 | 257 | 0.9 | 9.6 | 0.00 | 0.00 | 0.00 | 54 | 1019.0 |
| 20260508161543 | 63 | 134 | 1.7 | 7.8 | 0.00 | 0.00 | 0.00 | 55 | 1019.4 |
| 20260508160040 | 62 | 115 | 1.7 | 8.7 | 0.00 | 0.00 | 0.00 | 55 | 1019.6 |
| 20260508154542 | 62 | 109 | 0.9 | 10.4 | 0.00 | 0.00 | 0.00 | 58 | 1019.5 |
| 20260508153037 | 62 | 98 | 3.5 | 8.7 | 0.00 | 0.00 | 0.00 | 60 | 1019.7 |
| 20260508151535 | 61 | 141 | 1.7 | 7.0 | 0.00 | 0.00 | 0.00 | 61 | 1019.7 |
| 20260508150037 | 61 | 119 | 0.9 | 7.0 | 0.00 | 0.00 | 0.00 | 60 | 1019.9 |
| 20260508144601 | 60 | 102 | 1.7 | 6.1 | 0.00 | 0.00 | 0.00 | 60 | 1019.8 |
| 20260508143041 | 60 | 186 | 0.9 | 4.3 | 0.00 | 0.00 | 0.00 | 62 | 1019.7 |
| 20260508141542 | 59 | 82 | 1.7 | 7.0 | 0.00 | 0.00 | 0.00 | 62 | 1019.6 |
| 20260508140044 | 59 | 131 | 0.9 | 7.0 | 0.00 | 0.00 | 0.00 | 62 | 1019.9 |
| 20260508134540 | 58 | 0 | 0.9 | 6.1 | 0.00 | 0.00 | 0.00 | 64 | 1020.0 |
| 20260508133105 | 57 | 0 | 0.9 | 3.5 | 0.00 | 0.00 | 0.00 | 70 | 1020.1 |
| 20260508131547 | 55 | 164 | 0.0 | 2.6 | 0.00 | 0.00 | 0.00 | 74 | 1019.9 |
| 20260508130040 | 54 | 0 | 0.0 | 2.6 | 0.00 | 0.00 | 0.00 | 82 | 1019.6 |
| 20260508124539 | 52 | 360 | 0.9 | 3.5 | 0.00 | 0.00 | 0.00 | 90 | 1019.4 |
| 20260508123056 | 50 | 0 | 0.0 | 1.7 | 0.00 | 0.00 | 0.00 | 92 | 1019.2 |
| 20260508121540 | 48 | 271 | 0.0 | 1.7 | 0.00 | 0.00 | 0.00 | 93 | 1019.1 |
| 20260508120043 | 47 | 271 | 0.0 | 1.7 | 0.00 | 0.00 | 0.00 | 93 | 1018.8 |
| 20260508114536 | 46 | 0 | 0.0 | 0.0 | 0.00 | 0.00 | 0.00 | 93 | 1018.6 |
| 20260508113050 | 45 | 0 | 0.0 | 0.0 | 0.00 | 0.00 | 0.00 | 92 | 1018.4 |
| 20260508111543 | 44 | 0 | 0.0 | 0.0 | 0.00 | 0.00 | 0.00 | 92 | 1018.1 |
| 20260508110052 | 44 | 0 | 0.0 | 0.0 | 0.00 | 0.00 | 0.00 | 92 | 1017.6 |
| 20260508104540 | 44 | 0 | 0.0 | 0.0 | 0.00 | 0.00 | 0.00 | 91 | 1017.4 |
| 20260508103041 | 44 | 0 | 0.0 | 0.0 | 0.00 | 0.00 | 0.00 | 91 | 1017.0 |
| 20260508101538 | 45 | 0 | 0.0 | 0.9 | 0.00 | 0.00 | 0.00 | 91 | 1017.1 |
| 20260508100044 | 45 | 0 | 0.0 | 1.7 | 0.00 | 0.00 | 0.00 | 91 | 1016.9 |
| 20260508094540 | 46 | 0 | 0.0 | 0.0 | 0.00 | 0.00 | 0.00 | 91 | 1016.7 |
| 20260508093040 | 46 | 0 | 0.0 | 2.6 | 0.00 | 0.00 | 0.00 | 91 | 1016.5 |
| 20260508091551 | 46 | 274 | 0.0 | 0.0 | 0.00 | 0.00 | 0.00 | 92 | 1016.4 |
| 20260508090057 | 45 | 0 | 0.0 | 0.9 | 0.00 | 0.00 | 0.00 | 91 | 1016.5 |
| 20260508084538 | 45 | 0 | 0.0 | 1.7 | 0.00 | 0.00 | 0.00 | 91 | 1016.3 |
| 20260508083042 | 45 | 0 | 0.0 | 0.9 | 0.00 | 0.00 | 0.00 | 90 | 1016.4 |
| 20260508081543 | 45 | 0 | 0.0 | 1.7 | 0.00 | 0.00 | 0.00 | 90 | 1016.3 |
| 20260508080035 | 45 | 274 | 0.0 | 1.7 | 0.00 | 0.00 | 0.00 | 89 | 1016.1 |
| 20260508074542 | 46 | 0 | 0.0 | 0.9 | 0.00 | 0.00 | 0.00 | 89 | 1016.2 |
| 20260508073037 | 46 | 0 | 0.0 | 1.7 | 0.00 | 0.00 | 0.00 | 89 | 1016.2 |
| 20260508071549 | 47 | 360 | 0.9 | 1.7 | 0.00 | 0.00 | 0.00 | 88 | 1016.0 |
| 20260508070040 | 48 | 0 | 0.0 | 0.9 | 0.00 | 0.00 | 0.00 | 88 | 1016.0 |
| 20260508064539 | 48 | 360 | 0.9 | 2.6 | 0.00 | 0.00 | 0.00 | 87 | 1016.0 |
| 20260508063043 | 49 | 360 | 0.0 | 1.7 | 0.00 | 0.00 | 0.00 | 87 | 1015.8 |
| 20260508061541 | 49 | 0 | 0.0 | 0.9 | 0.00 | 0.00 | 0.00 | 87 | 1015.9 |
| 20260508060042 | 49 | 0 | 0.0 | 2.6 | 0.00 | 0.00 | 0.00 | 85 | 1016.0 |
| 20260508054539 | 50 | 39 | 0.0 | 1.7 | 0.00 | 0.00 | 0.00 | 84 | 1015.9 |
| 20260508053058 | 51 | 0 | 0.0 | 1.7 | 0.00 | 0.00 | 0.00 | 82 | 1015.9 |
| 20260508051541 | 51 | 0 | 0.0 | 1.7 | 0.00 | 0.00 | 0.00 | 80 | 1016.0 |
| 20260508050043 | 51 | 38 | 0.0 | 1.7 | 0.00 | 0.00 | 0.00 | 81 | 1015.8 |
| 20260508044540 | 51 | 351 | 0.0 | 2.6 | 0.00 | 0.00 | 0.00 | 82 | 1015.8 |
| 20260508043041 | 51 | 0 | 0.0 | 0.9 | 0.00 | 0.00 | 0.00 | 81 | 1015.7 |
| 20260508041604 | 51 | 0 | 0.0 | 1.7 | 0.00 | 0.00 | 0.00 | 82 | 1015.6 |
| 20260508040046 | 53 | 0 | 0.0 | 1.7 | 0.00 | 0.00 | 0.00 | 81 | 1015.5 |
| 20260508034537 | 53 | 360 | 0.0 | 4.3 | 0.00 | 0.00 | 0.00 | 78 | 1015.5 |
| 20260508033041 | 53 | 46 | 0.0 | 1.7 | 0.00 | 0.00 | 0.00 | 78 | 1015.6 |
| 20260508031540 | 53 | 0 | 0.0 | 0.9 | 0.00 | 0.00 | 0.00 | 79 | 1015.7 |
| 20260508030038 | 53 | 360 | 0.0 | 1.7 | 0.00 | 0.00 | 0.00 | 78 | 1015.7 |
| 20260508024541 | 53 | 0 | 0.0 | 0.9 | 0.00 | 0.00 | 0.00 | 79 | 1015.5 |
| 20260508023037 | 53 | 360 | 0.0 | 2.6 | 0.00 | 0.00 | 0.00 | 78 | 1015.4 |